Location: Dompnac
(44.5644°N, 4.1026°E)
Time: 10:08:21
(UTC+00:00)

Cosmos 2026 Rocket - Pass Details

Date: 20 January 2021
Orbit: 940 x 1000 km, 82.9° (Epoch: 26 February)

Event Time Altitude Azimuth Distance (km) Brightness Sun altitude
Rises 04:15:27 0° 6° (N) 3,703 7.1 -31.4°
Reaches altitude 10° 04:19:23 10° 30° (NNE) 2,761 6.7 -30.7°
Maximum altitude 04:22:43 14° 62° (ENE) 2,446 6.7 -30.1°
Drops below altitude 10° 04:26:02 10° 94° (E) 2,766 7.3 -29.5°
Sets 04:29:57 0° 118° (ESE) 3,714 8.0 -28.8°
